[Date Prev][Date Next][Thread Prev][Thread Next] - [Date Index][Thread Index][Author Index]
2 Line ISS Keps 3-21
- Subject: [sarex] 2 Line ISS Keps 3-21
- From: "Dave Larsen PhD" <doc@xxxxxxxxxxx>
- Date: Thu, 21 Mar 2002 01:03:38 -0800
ISS
1 25544U 98067A 02080.20795699 .00055579 00000-0 72274-3 0 2086
2 25544 51.6357 134.9787 0003934 304.8480 98.7042 15.58220910190311
----
Via the sarex mailing list at AMSAT.ORG courtesy of AMSAT-NA.
To unsubscribe, send "unsubscribe sarex" to Majordomo@amsat.org
AMSAT Home